Year,Month,Day,Hour,Minute,Value (Times are PST for temperature in C)
2015,04,28,00,00,12.20
2015,04,28,00,01,12.20
2015,04,28,00,02,12.20
2015,04,28,00,03,12.20
2015,04,28,00,04,12.20
2015,04,28,00,05,12.20
2015,04,28,00,06,12.20
2015,04,28,00,07,12.10
2015,04,28,00,08,12.10
2015,04,28,00,09,12.10
2015,04,28,00,10,12.10
2015,04,28,00,11,12.00
2015,04,28,00,12,12.00
2015,04,28,00,13,11.90
2015,04,28,00,14,11.90
2015,04,28,00,15,11.80
2015,04,28,00,16,11.80
2015,04,28,00,17,11.80
2015,04,28,00,18,11.80
2015,04,28,00,19,11.80
2015,04,28,00,20,11.70
2015,04,28,00,21,11.70
2015,04,28,00,22,11.70
2015,04,28,00,23,11.70
2015,04,28,00,24,11.80
2015,04,28,00,25,11.80
2015,04,28,00,26,11.80
2015,04,28,00,27,11.80
2015,04,28,00,28,11.80
2015,04,28,00,29,11.70
2015,04,28,00,30,11.70
2015,04,28,00,31,11.70
2015,04,28,00,32,11.70
2015,04,28,00,33,11.70
2015,04,28,00,34,11.70
2015,04,28,00,35,11.70
2015,04,28,00,36,11.70
2015,04,28,00,37,11.70
2015,04,28,00,38,11.70
2015,04,28,00,39,11.70
2015,04,28,00,40,11.70
2015,04,28,00,41,11.70
2015,04,28,00,42,11.70
2015,04,28,00,43,11.70
2015,04,28,00,44,11.70
2015,04,28,00,45,11.70
2015,04,28,00,46,11.70
2015,04,28,00,47,11.70
2015,04,28,00,48,11.70
2015,04,28,00,49,11.70
2015,04,28,00,50,11.70
2015,04,28,00,51,11.70
2015,04,28,00,52,11.70
2015,04,28,00,53,11.70
2015,04,28,00,54,11.70
2015,04,28,00,55,11.70
2015,04,28,00,56,11.60
2015,04,28,00,57,11.60
2015,04,28,00,58,11.60
2015,04,28,00,59,11.60
2015,04,28,01,00,11.60
2015,04,28,01,01,11.60
2015,04,28,01,02,11.60
2015,04,28,01,03,11.60
2015,04,28,01,04,11.70
2015,04,28,01,05,11.70
2015,04,28,01,06,11.70
2015,04,28,01,07,11.70
2015,04,28,01,08,11.70
2015,04,28,01,09,11.80
2015,04,28,01,10,11.80
2015,04,28,01,11,11.80
2015,04,28,01,12,11.80
2015,04,28,01,13,11.80
2015,04,28,01,14,11.70
2015,04,28,01,15,11.70
2015,04,28,01,16,11.70
2015,04,28,01,17,11.60
2015,04,28,01,18,11.60
2015,04,28,01,19,11.60
2015,04,28,01,20,11.50
2015,04,28,01,21,11.50
2015,04,28,01,22,11.40
2015,04,28,01,23,11.40
2015,04,28,01,24,11.40
2015,04,28,01,25,11.40
2015,04,28,01,26,11.30
2015,04,28,01,27,11.30
2015,04,28,01,28,11.30
2015,04,28,01,29,11.30
2015,04,28,01,30,11.30
2015,04,28,01,31,11.30
2015,04,28,01,32,11.30
2015,04,28,01,33,11.30
2015,04,28,01,34,11.30
2015,04,28,01,35,11.30
2015,04,28,01,36,11.20
2015,04,28,01,37,11.20
2015,04,28,01,38,11.20
2015,04,28,01,39,11.20
2015,04,28,01,40,11.20
2015,04,28,01,41,11.20
2015,04,28,01,42,11.20
2015,04,28,01,43,11.20
2015,04,28,01,44,11.20
2015,04,28,01,45,11.20
2015,04,28,01,46,11.20
2015,04,28,01,47,11.20
2015,04,28,01,48,11.10
2015,04,28,01,49,11.10
2015,04,28,01,50,11.10
2015,04,28,01,51,11.10
2015,04,28,01,52,11.10
2015,04,28,01,53,11.10
2015,04,28,01,54,11.00
2015,04,28,01,55,11.00
2015,04,28,01,56,11.00
2015,04,28,01,57,11.00
2015,04,28,01,58,11.00
2015,04,28,01,59,11.00
2015,04,28,02,00,11.00
2015,04,28,02,01,11.00
2015,04,28,02,02,11.10
2015,04,28,02,03,11.10
2015,04,28,02,04,11.20
2015,04,28,02,05,11.20
2015,04,28,02,06,11.20
2015,04,28,02,07,11.20
2015,04,28,02,08,11.10
2015,04,28,02,09,11.10
2015,04,28,02,10,11.10
2015,04,28,02,11,11.10
2015,04,28,02,12,11.10
2015,04,28,02,13,11.10
2015,04,28,02,14,11.10
2015,04,28,02,15,11.10
2015,04,28,02,16,11.10
2015,04,28,02,17,11.10
2015,04,28,02,18,11.10
2015,04,28,02,19,11.10
2015,04,28,02,20,11.10
2015,04,28,02,21,11.10
2015,04,28,02,22,11.10
2015,04,28,02,23,11.10
2015,04,28,02,24,11.10
2015,04,28,02,25,11.10
2015,04,28,02,26,11.10
2015,04,28,02,27,11.10
2015,04,28,02,28,11.10
2015,04,28,02,29,11.10
2015,04,28,02,30,11.00
2015,04,28,02,31,11.00
2015,04,28,02,32,11.00
2015,04,28,02,33,11.00
2015,04,28,02,34,10.90
2015,04,28,02,35,10.90
2015,04,28,02,36,10.90
2015,04,28,02,37,10.90
2015,04,28,02,38,11.00
2015,04,28,02,39,11.00
2015,04,28,02,40,11.10
2015,04,28,02,41,11.10
2015,04,28,02,42,11.10
2015,04,28,02,43,11.10
2015,04,28,02,44,11.10
2015,04,28,02,45,11.10
2015,04,28,02,46,11.10
2015,04,28,02,47,11.10
2015,04,28,02,48,11.00
2015,04,28,02,49,11.00
2015,04,28,02,50,10.90
2015,04,28,02,51,10.90
2015,04,28,02,52,10.90
2015,04,28,02,53,10.80
2015,04,28,02,54,10.80
2015,04,28,02,55,10.80
2015,04,28,02,56,10.80
2015,04,28,02,57,10.80
2015,04,28,02,58,10.80
2015,04,28,02,59,10.90
2015,04,28,03,00,10.90
2015,04,28,03,01,10.90
2015,04,28,03,02,10.80
2015,04,28,03,03,10.80
2015,04,28,03,04,10.80
2015,04,28,03,05,10.80
2015,04,28,03,06,10.80
2015,04,28,03,07,10.90
2015,04,28,03,08,10.90
2015,04,28,03,09,10.90
2015,04,28,03,10,10.90
2015,04,28,03,11,10.90
2015,04,28,03,12,10.90
2015,04,28,03,13,10.80
2015,04,28,03,14,10.80
2015,04,28,03,15,10.80
2015,04,28,03,16,10.80
2015,04,28,03,17,10.80
2015,04,28,03,18,10.80
2015,04,28,03,19,10.80
2015,04,28,03,20,10.80
2015,04,28,03,21,10.80
2015,04,28,03,22,10.80
2015,04,28,03,23,10.80
2015,04,28,03,24,10.80
2015,04,28,03,25,10.70
2015,04,28,03,26,10.70
2015,04,28,03,27,10.70
2015,04,28,03,28,10.70
2015,04,28,03,29,10.70
2015,04,28,03,30,10.70
2015,04,28,03,31,10.70
2015,04,28,03,32,10.70
2015,04,28,03,33,10.60
2015,04,28,03,34,10.60
2015,04,28,03,35,10.60
2015,04,28,03,36,10.60
2015,04,28,03,37,10.60
2015,04,28,03,38,10.60
2015,04,28,03,39,10.60
2015,04,28,03,40,10.50
2015,04,28,03,41,10.50
2015,04,28,03,42,10.50
2015,04,28,03,43,10.60
2015,04,28,03,44,10.60
2015,04,28,03,45,10.60
2015,04,28,03,46,10.60
2015,04,28,03,47,10.60
2015,04,28,03,48,10.60
2015,04,28,03,49,10.60
2015,04,28,03,50,10.50
2015,04,28,03,51,10.50
2015,04,28,03,52,10.50
2015,04,28,03,53,10.60
2015,04,28,03,54,10.60
2015,04,28,03,55,10.50
2015,04,28,03,56,10.50
2015,04,28,03,57,10.50
2015,04,28,03,58,10.50
2015,04,28,03,59,10.50
2015,04,28,04,00,10.40
2015,04,28,04,01,10.40
2015,04,28,04,02,10.40
2015,04,28,04,03,10.40
2015,04,28,04,04,10.30
2015,04,28,04,05,10.30
2015,04,28,04,06,10.40
2015,04,28,04,07,10.40
2015,04,28,04,08,10.40
2015,04,28,04,09,10.40
2015,04,28,04,10,10.40
2015,04,28,04,11,10.40
2015,04,28,04,12,10.40
2015,04,28,04,13,10.40
2015,04,28,04,14,10.40
2015,04,28,04,15,10.50
2015,04,28,04,16,10.60
2015,04,28,04,17,10.60
2015,04,28,04,18,10.70
2015,04,28,04,19,10.70
2015,04,28,04,20,10.70
2015,04,28,04,21,10.70
2015,04,28,04,22,10.70
2015,04,28,04,23,10.70
2015,04,28,04,24,10.70
2015,04,28,04,25,10.70
2015,04,28,04,26,10.60
2015,04,28,04,27,10.60
2015,04,28,04,28,10.60
2015,04,28,04,29,10.60
2015,04,28,04,30,10.60
2015,04,28,04,31,10.60
2015,04,28,04,32,10.60
2015,04,28,04,33,10.60
2015,04,28,04,34,10.60
2015,04,28,04,35,10.60
2015,04,28,04,36,10.70
2015,04,28,04,37,10.80
2015,04,28,04,38,10.80
2015,04,28,04,39,10.80
2015,04,28,04,40,10.80
2015,04,28,04,41,10.80
2015,04,28,04,42,10.80
2015,04,28,04,43,10.80
2015,04,28,04,44,10.80
2015,04,28,04,45,10.80
2015,04,28,04,46,10.80
2015,04,28,04,47,10.80
2015,04,28,04,48,10.80
2015,04,28,04,49,10.80
2015,04,28,04,50,10.80
2015,04,28,04,51,10.90
2015,04,28,04,52,10.90
2015,04,28,04,53,10.90
2015,04,28,04,54,11.00
2015,04,28,04,55,11.00
2015,04,28,04,56,11.00
2015,04,28,04,57,11.10
2015,04,28,04,58,11.10
2015,04,28,04,59,11.10
2015,04,28,05,00,11.10
2015,04,28,05,01,11.20
2015,04,28,05,02,11.20
2015,04,28,05,03,11.20
2015,04,28,05,04,11.20
2015,04,28,05,05,11.10
2015,04,28,05,06,11.10
2015,04,28,05,07,11.20
2015,04,28,05,08,11.20
2015,04,28,05,09,11.20
2015,04,28,05,10,11.20
2015,04,28,05,11,11.30
2015,04,28,05,12,11.30
2015,04,28,05,13,11.40
2015,04,28,05,14,11.40
2015,04,28,05,15,11.50
2015,04,28,05,16,11.60
2015,04,28,05,17,11.60
2015,04,28,05,18,11.70
2015,04,28,05,19,11.70
2015,04,28,05,20,11.60
2015,04,28,05,21,11.60
2015,04,28,05,22,11.60
2015,04,28,05,23,11.60
2015,04,28,05,24,11.60
2015,04,28,05,25,11.70
2015,04,28,05,26,11.80
2015,04,28,05,27,12.00
2015,04,28,05,28,12.00
2015,04,28,05,29,12.10
2015,04,28,05,30,12.20
2015,04,28,05,31,12.20
2015,04,28,05,32,12.30
2015,04,28,05,33,12.30
2015,04,28,05,34,12.30
2015,04,28,05,35,12.30
2015,04,28,05,36,12.30
2015,04,28,05,37,12.30
2015,04,28,05,38,12.30
2015,04,28,05,39,12.30
2015,04,28,05,40,12.30
2015,04,28,05,41,12.30
2015,04,28,05,42,12.30
2015,04,28,05,43,12.30
2015,04,28,05,44,12.30
2015,04,28,05,45,12.30
2015,04,28,05,46,12.30
2015,04,28,05,47,12.30
2015,04,28,05,48,12.40
2015,04,28,05,49,12.60
2015,04,28,05,50,12.70
2015,04,28,05,51,12.80
2015,04,28,05,52,12.80
2015,04,28,05,53,12.80
2015,04,28,05,54,12.70
2015,04,28,05,55,12.70
2015,04,28,05,56,12.70
2015,04,28,05,57,12.60
2015,04,28,05,58,12.60
2015,04,28,05,59,12.50
2015,04,28,06,00,12.50
2015,04,28,06,01,12.60
2015,04,28,06,02,12.60
2015,04,28,06,03,12.60
2015,04,28,06,04,12.60
2015,04,28,06,05,12.70
2015,04,28,06,06,12.70
2015,04,28,06,07,12.70
2015,04,28,06,08,12.70
2015,04,28,06,09,12.70
2015,04,28,06,10,12.70
2015,04,28,06,11,12.70
2015,04,28,06,12,12.70
2015,04,28,06,13,12.70
2015,04,28,06,14,12.60
2015,04,28,06,15,12.60
2015,04,28,06,16,12.60
2015,04,28,06,17,12.60
2015,04,28,06,18,12.50
2015,04,28,06,19,12.50
2015,04,28,06,20,12.50
2015,04,28,06,21,12.60
2015,04,28,06,22,12.50
2015,04,28,06,23,12.50
2015,04,28,06,24,12.50
2015,04,28,06,25,12.50
2015,04,28,06,26,12.40
2015,04,28,06,27,12.40
2015,04,28,06,28,12.40
2015,04,28,06,29,12.30
2015,04,28,06,30,12.30
2015,04,28,06,31,12.20
2015,04,28,06,32,12.20
2015,04,28,06,33,12.10
2015,04,28,06,34,12.10
2015,04,28,06,35,12.00
2015,04,28,06,36,12.00
2015,04,28,06,37,11.90
2015,04,28,06,38,11.90
2015,04,28,06,39,11.80
2015,04,28,06,40,11.80
2015,04,28,06,41,11.80
2015,04,28,06,42,11.90
2015,04,28,06,43,11.90
2015,04,28,06,44,11.90
2015,04,28,06,45,11.90
2015,04,28,06,46,11.90
2015,04,28,06,47,12.00
2015,04,28,06,48,12.00
2015,04,28,06,49,12.00
2015,04,28,06,50,12.00
2015,04,28,06,51,12.00
2015,04,28,06,52,12.10
2015,04,28,06,53,12.10
2015,04,28,06,54,12.10
2015,04,28,06,55,12.20
2015,04,28,06,56,12.20
2015,04,28,06,57,12.20
2015,04,28,06,58,12.20
2015,04,28,06,59,12.20
2015,04,28,07,00,12.30
2015,04,28,07,01,12.30
2015,04,28,07,02,12.40
2015,04,28,07,03,12.50
2015,04,28,07,04,12.60
2015,04,28,07,05,12.60
2015,04,28,07,06,12.70
2015,04,28,07,07,12.80
2015,04,28,07,08,12.90
2015,04,28,07,09,13.00
2015,04,28,07,10,13.20
2015,04,28,07,11,13.30
2015,04,28,07,12,13.50
2015,04,28,07,13,13.60
2015,04,28,07,14,13.80
2015,04,28,07,15,14.00
2015,04,28,07,16,14.20
2015,04,28,07,17,14.30
2015,04,28,07,18,14.40
2015,04,28,07,19,14.50
2015,04,28,07,20,14.60
2015,04,28,07,21,14.80
2015,04,28,07,22,14.80
2015,04,28,07,23,14.90
2015,04,28,07,24,14.90
2015,04,28,07,25,15.00
2015,04,28,07,26,15.00
2015,04,28,07,27,15.10
2015,04,28,07,28,15.10
2015,04,28,07,29,15.10
2015,04,28,07,30,15.10
2015,04,28,07,31,15.10
2015,04,28,07,32,15.10
2015,04,28,07,33,15.10
2015,04,28,07,34,15.10
2015,04,28,07,35,15.20
2015,04,28,07,36,15.20
2015,04,28,07,37,15.20
2015,04,28,07,38,15.20
2015,04,28,07,39,15.20
2015,04,28,07,40,15.20
2015,04,28,07,41,15.20
2015,04,28,07,42,15.10
2015,04,28,07,43,15.10
2015,04,28,07,44,15.10
2015,04,28,07,45,15.10
2015,04,28,07,46,15.10
2015,04,28,07,47,15.10
2015,04,28,07,48,15.10
2015,04,28,07,49,15.10
2015,04,28,07,50,15.10
2015,04,28,07,51,15.10
2015,04,28,07,52,15.10
2015,04,28,07,53,15.00
2015,04,28,07,54,15.00
2015,04,28,07,55,15.00
2015,04,28,07,56,14.90
2015,04,28,07,57,14.90
2015,04,28,07,58,14.90
2015,04,28,07,59,14.90
2015,04,28,08,00,14.80
2015,04,28,08,01,14.80
2015,04,28,08,02,14.80
2015,04,28,08,03,14.80
2015,04,28,08,04,14.80
2015,04,28,08,05,14.80
2015,04,28,08,06,14.80
2015,04,28,08,07,14.80
2015,04,28,08,08,14.80
2015,04,28,08,09,14.80
2015,04,28,08,10,14.70
2015,04,28,08,11,14.50
2015,04,28,08,12,14.30
2015,04,28,08,13,14.10
2015,04,28,08,14,13.90
2015,04,28,08,15,13.80
2015,04,28,08,16,13.70
2015,04,28,08,17,13.60
2015,04,28,08,18,13.50
2015,04,28,08,19,13.40
2015,04,28,08,20,13.40
2015,04,28,08,21,13.40
2015,04,28,08,22,13.30
2015,04,28,08,23,13.30
2015,04,28,08,24,13.20
2015,04,28,08,25,13.10
2015,04,28,08,26,13.10
2015,04,28,08,27,13.00
2015,04,28,08,28,13.00
2015,04,28,08,29,12.90
2015,04,28,08,30,12.90
2015,04,28,08,31,12.80
2015,04,28,08,32,12.80
2015,04,28,08,33,12.80
2015,04,28,08,34,12.70
2015,04,28,08,35,12.70
2015,04,28,08,36,12.70
2015,04,28,08,37,12.60
2015,04,28,08,38,12.60
2015,04,28,08,39,12.60
2015,04,28,08,40,12.60
2015,04,28,08,41,12.50
2015,04,28,08,42,12.50
2015,04,28,08,43,12.50
2015,04,28,08,44,12.50
2015,04,28,08,45,12.50
2015,04,28,08,46,12.40
2015,04,28,08,47,12.40
2015,04,28,08,48,12.40
2015,04,28,08,49,12.40
2015,04,28,08,50,12.40
2015,04,28,08,51,12.40
2015,04,28,08,52,12.40
2015,04,28,08,53,12.40
2015,04,28,08,54,12.40
2015,04,28,08,55,12.40
2015,04,28,08,56,12.40
2015,04,28,08,57,12.50
2015,04,28,08,58,12.50
2015,04,28,08,59,12.50
2015,04,28,09,00,12.50
2015,04,28,09,01,12.50
2015,04,28,09,02,12.50
2015,04,28,09,03,12.50
2015,04,28,09,04,12.40
2015,04,28,09,05,12.40
2015,04,28,09,06,12.40
2015,04,28,09,07,12.30
2015,04,28,09,08,12.30
2015,04,28,09,09,12.30
2015,04,28,09,10,12.20
2015,04,28,09,11,12.20
2015,04,28,09,12,12.20
2015,04,28,09,13,12.20
2015,04,28,09,14,12.10
2015,04,28,09,15,12.10
2015,04,28,09,16,12.10
2015,04,28,09,17,12.10
2015,04,28,09,18,12.10
2015,04,28,09,19,12.10
2015,04,28,09,20,12.10
2015,04,28,09,21,12.00
2015,04,28,09,22,12.00
2015,04,28,09,23,12.00
2015,04,28,09,24,12.00
2015,04,28,09,25,12.00
2015,04,28,09,26,11.90
2015,04,28,09,27,11.90
2015,04,28,09,28,11.90
2015,04,28,09,29,11.90
2015,04,28,09,30,11.90
2015,04,28,09,31,11.90
2015,04,28,09,32,11.90
2015,04,28,09,33,11.90
2015,04,28,09,34,11.90
2015,04,28,09,35,11.90
2015,04,28,09,36,12.00
2015,04,28,09,37,12.00
2015,04,28,09,38,12.00
2015,04,28,09,39,12.00
2015,04,28,09,40,12.10
2015,04,28,09,41,12.10
2015,04,28,09,42,12.10
2015,04,28,09,43,12.10
2015,04,28,09,44,12.20
2015,04,28,09,45,12.20
2015,04,28,09,46,12.20
2015,04,28,09,47,12.20
2015,04,28,09,48,12.20
2015,04,28,09,49,12.20
2015,04,28,09,50,12.20
2015,04,28,09,51,12.20
2015,04,28,09,52,12.20
2015,04,28,09,53,12.20
2015,04,28,09,54,12.20
2015,04,28,09,55,12.20
2015,04,28,09,56,12.20
2015,04,28,09,57,12.20
2015,04,28,09,58,12.20
2015,04,28,09,59,12.20
2015,04,28,10,00,12.20
2015,04,28,10,01,12.20
2015,04,28,10,02,12.20
2015,04,28,10,03,12.20
2015,04,28,10,04,12.10
2015,04,28,10,05,12.10
2015,04,28,10,06,12.10
2015,04,28,10,07,12.10
2015,04,28,10,08,12.10
2015,04,28,10,09,12.10
2015,04,28,10,10,12.10
2015,04,28,10,11,12.10
2015,04,28,10,12,12.10
2015,04,28,10,13,12.10
2015,04,28,10,14,12.10
2015,04,28,10,15,12.10
2015,04,28,10,16,12.10
2015,04,28,10,17,12.10
2015,04,28,10,18,12.00
2015,04,28,10,19,12.00
2015,04,28,10,20,11.90
2015,04,28,10,21,11.90
2015,04,28,10,22,11.90
2015,04,28,10,23,11.90
2015,04,28,10,24,11.90
2015,04,28,10,25,11.90
2015,04,28,10,26,12.00
2015,04,28,10,27,12.00
2015,04,28,10,28,12.00
2015,04,28,10,29,12.00
2015,04,28,10,30,12.00
2015,04,28,10,31,12.00
2015,04,28,10,32,12.00
2015,04,28,10,33,12.00
2015,04,28,10,34,11.90
2015,04,28,10,35,11.90
2015,04,28,10,36,11.90
2015,04,28,10,37,11.90
2015,04,28,10,38,11.80
2015,04,28,10,39,11.80
2015,04,28,10,40,11.80
2015,04,28,10,41,11.80
2015,04,28,10,42,11.80
2015,04,28,10,43,11.70
2015,04,28,10,44,11.70
2015,04,28,10,45,11.70
2015,04,28,10,46,11.70
2015,04,28,10,47,11.70
2015,04,28,10,48,11.60
2015,04,28,10,49,11.60
2015,04,28,10,50,11.60
2015,04,28,10,51,11.60
2015,04,28,10,52,11.60
2015,04,28,10,53,11.60
2015,04,28,10,54,11.60
2015,04,28,10,55,11.60
2015,04,28,10,56,11.60
2015,04,28,10,57,11.60
2015,04,28,10,58,11.60
2015,04,28,10,59,11.70
2015,04,28,11,00,11.70
2015,04,28,11,01,11.70
2015,04,28,11,02,11.60
2015,04,28,11,03,11.60
2015,04,28,11,04,11.60
2015,04,28,11,05,11.60
2015,04,28,11,06,11.60
2015,04,28,11,07,11.60
2015,04,28,11,08,11.50
2015,04,28,11,09,11.60
2015,04,28,11,10,11.50
2015,04,28,11,11,11.60
2015,04,28,11,12,11.50
2015,04,28,11,13,11.50
2015,04,28,11,14,11.50
2015,04,28,11,15,11.50
2015,04,28,11,16,11.50
2015,04,28,11,17,11.40
2015,04,28,11,18,11.40
2015,04,28,11,19,11.40
2015,04,28,11,20,11.40
2015,04,28,11,21,11.40
2015,04,28,11,22,11.30
2015,04,28,11,23,11.30
2015,04,28,11,24,11.30
2015,04,28,11,25,11.30
2015,04,28,11,26,11.30
2015,04,28,11,27,11.20
2015,04,28,11,28,11.20
2015,04,28,11,29,11.20
2015,04,28,11,30,11.10
2015,04,28,11,31,11.10
2015,04,28,11,32,11.10
2015,04,28,11,33,11.00
2015,04,28,11,34,11.00
2015,04,28,11,35,11.00
2015,04,28,11,36,11.00
2015,04,28,11,37,10.90
2015,04,28,11,38,10.90
2015,04,28,11,39,10.80
2015,04,28,11,40,10.80
2015,04,28,11,41,10.70
2015,04,28,11,42,10.70
2015,04,28,11,43,10.60
2015,04,28,11,44,10.60
2015,04,28,11,45,10.60
2015,04,28,11,46,10.60
2015,04,28,11,47,10.50
2015,04,28,11,48,10.50
2015,04,28,11,49,10.40
2015,04,28,11,50,10.40
2015,04,28,11,51,10.40
2015,04,28,11,52,10.30
2015,04,28,11,53,10.30
2015,04,28,11,54,10.30
2015,04,28,11,55,10.20
2015,04,28,11,56,10.20
2015,04,28,11,57,10.20
2015,04,28,11,58,10.10
2015,04,28,11,59,10.10
2015,04,28,12,00,10.10
2015,04,28,12,01,10.10
2015,04,28,12,02,10.00
2015,04,28,12,03,10.00
2015,04,28,12,04,10.00
2015,04,28,12,05,9.90
2015,04,28,12,06,9.90
2015,04,28,12,07,9.90
2015,04,28,12,08,9.90
2015,04,28,12,09,9.90
2015,04,28,12,10,9.90
2015,04,28,12,11,9.90
2015,04,28,12,12,9.90
2015,04,28,12,13,9.90
2015,04,28,12,14,9.90
2015,04,28,12,15,9.90
2015,04,28,12,16,9.90
2015,04,28,12,17,9.80
2015,04,28,12,18,9.80
2015,04,28,12,19,9.90
2015,04,28,12,20,9.80
2015,04,28,12,21,9.90
2015,04,28,12,22,9.90
2015,04,28,12,23,9.90
2015,04,28,12,24,9.90
2015,04,28,12,25,9.90
2015,04,28,12,26,9.90
2015,04,28,12,27,9.90
2015,04,28,12,28,9.90
2015,04,28,12,29,9.90
2015,04,28,12,30,9.90
2015,04,28,12,31,10.00
2015,04,28,12,32,10.00
2015,04,28,12,33,10.00
2015,04,28,12,34,10.00
2015,04,28,12,35,10.00
2015,04,28,12,36,10.00
2015,04,28,12,37,10.00
2015,04,28,12,38,10.00
2015,04,28,12,39,10.10
2015,04,28,12,40,10.10
2015,04,28,12,41,10.10
2015,04,28,12,42,10.10
2015,04,28,12,43,10.10
2015,04,28,12,44,10.20
2015,04,28,12,45,10.20
2015,04,28,12,46,10.20
2015,04,28,12,47,10.20
2015,04,28,12,48,10.20
2015,04,28,12,49,10.30
2015,04,28,12,50,10.30
2015,04,28,12,51,10.30
2015,04,28,12,52,10.30
2015,04,28,12,53,10.40
2015,04,28,12,54,10.40
2015,04,28,12,55,10.40
2015,04,28,12,56,10.50
2015,04,28,12,57,10.50
2015,04,28,12,58,10.60
2015,04,28,12,59,10.60
2015,04,28,13,00,10.60
2015,04,28,13,01,10.70
2015,04,28,13,02,10.70
2015,04,28,13,03,10.70
2015,04,28,13,04,10.80
2015,04,28,13,05,10.80
2015,04,28,13,06,10.80
2015,04,28,13,07,10.80
2015,04,28,13,08,10.90
2015,04,28,13,09,10.90
2015,04,28,13,10,10.90
2015,04,28,13,11,10.90
2015,04,28,13,12,11.00
2015,04,28,13,13,11.00
2015,04,28,13,14,11.10
2015,04,28,13,15,11.10
2015,04,28,13,16,11.10
2015,04,28,13,17,11.10
2015,04,28,13,18,11.20
2015,04,28,13,19,11.20
2015,04,28,13,20,11.20
2015,04,28,13,21,11.20
2015,04,28,13,22,11.30
2015,04,28,13,23,11.30
2015,04,28,13,24,11.30
2015,04,28,13,25,11.30
2015,04,28,13,26,11.30
2015,04,28,13,27,11.40
2015,04,28,13,28,11.40
2015,04,28,13,29,11.40
2015,04,28,13,30,11.50
2015,04,28,13,31,11.50
2015,04,28,13,32,11.60
2015,04,28,13,33,11.70
2015,04,28,13,34,11.70
2015,04,28,13,35,11.80
2015,04,28,13,36,11.90
2015,04,28,13,37,12.00
2015,04,28,13,38,12.10
2015,04,28,13,39,12.10
2015,04,28,13,40,12.20
2015,04,28,13,41,12.20
2015,04,28,13,42,12.30
2015,04,28,13,43,12.30
2015,04,28,13,44,12.40
2015,04,28,13,45,12.40
2015,04,28,13,46,12.50
2015,04,28,13,47,12.50
2015,04,28,13,48,12.60
2015,04,28,13,49,12.70
2015,04,28,13,50,12.70
2015,04,28,13,51,12.80
2015,04,28,13,52,12.90
2015,04,28,13,53,12.90
2015,04,28,13,54,13.00
2015,04,28,13,55,13.00
2015,04,28,13,56,13.00
2015,04,28,13,57,13.10
2015,04,28,13,58,13.10
2015,04,28,13,59,13.10
2015,04,28,14,00,13.20
2015,04,28,14,01,13.20
2015,04,28,14,02,13.20
2015,04,28,14,03,13.20
2015,04,28,14,04,13.20
2015,04,28,14,05,13.20
2015,04,28,14,06,13.20
2015,04,28,14,07,13.20
2015,04,28,14,08,13.20
2015,04,28,14,09,13.20
2015,04,28,14,10,13.20
2015,04,28,14,11,13.30
2015,04,28,14,12,13.30
2015,04,28,14,13,13.40
2015,04,28,14,14,13.30
2015,04,28,14,15,13.30
2015,04,28,14,16,13.30
2015,04,28,14,17,13.30
2015,04,28,14,18,13.20
2015,04,28,14,19,13.20
2015,04,28,14,20,13.20
2015,04,28,14,21,13.10
2015,04,28,14,22,13.10
2015,04,28,14,23,13.00
2015,04,28,14,24,13.00
2015,04,28,14,25,13.00
2015,04,28,14,26,13.00
2015,04,28,14,27,13.10
2015,04,28,14,28,13.10
2015,04,28,14,29,13.10
2015,04,28,14,30,13.10
2015,04,28,14,31,13.10
2015,04,28,14,32,13.10
2015,04,28,14,33,13.20
2015,04,28,14,34,13.20
2015,04,28,14,35,13.30
2015,04,28,14,36,13.30
2015,04,28,14,37,13.30
2015,04,28,14,38,13.30
2015,04,28,14,39,13.30
2015,04,28,14,40,13.30
2015,04,28,14,41,13.30
2015,04,28,14,42,13.40
2015,04,28,14,43,13.40
2015,04,28,14,44,13.40
2015,04,28,14,45,13.50
2015,04,28,14,46,13.40
2015,04,28,14,47,13.40
2015,04,28,14,48,13.30
2015,04,28,14,49,13.20
2015,04,28,14,50,13.20
2015,04,28,14,51,13.20
2015,04,28,14,52,13.30
2015,04,28,14,53,13.30
2015,04,28,14,54,13.30
2015,04,28,14,55,13.30
2015,04,28,14,56,13.20
2015,04,28,14,57,13.20
2015,04,28,14,58,13.00
2015,04,28,14,59,12.90
2015,04,28,15,00,12.90
2015,04,28,15,01,12.80
2015,04,28,15,02,12.70
2015,04,28,15,03,12.60
2015,04,28,15,04,12.60
2015,04,28,15,05,12.60
2015,04,28,15,06,12.60
2015,04,28,15,07,12.70
2015,04,28,15,08,12.70
2015,04,28,15,09,12.60
2015,04,28,15,10,12.60
2015,04,28,15,11,12.60
2015,04,28,15,12,12.60
2015,04,28,15,13,12.60
2015,04,28,15,14,12.50
2015,04,28,15,15,12.40
2015,04,28,15,16,12.30
2015,04,28,15,17,12.30
2015,04,28,15,18,12.20
2015,04,28,15,19,12.20
2015,04,28,15,20,12.20
2015,04,28,15,21,12.20
2015,04,28,15,22,12.30
2015,04,28,15,23,12.30
2015,04,28,15,24,12.30
2015,04,28,15,25,12.40
2015,04,28,15,26,12.50
2015,04,28,15,27,12.60
2015,04,28,15,28,12.70
2015,04,28,15,29,12.80
2015,04,28,15,30,12.90
2015,04,28,15,31,13.00
2015,04,28,15,32,13.10
2015,04,28,15,33,13.20
2015,04,28,15,34,13.10
2015,04,28,15,35,13.10
2015,04,28,15,36,13.10
2015,04,28,15,37,13.10
2015,04,28,15,38,13.20
2015,04,28,15,39,13.20
2015,04,28,15,40,13.10
2015,04,28,15,41,13.00
2015,04,28,15,42,13.00
2015,04,28,15,43,13.10
2015,04,28,15,44,13.10
2015,04,28,15,45,13.20
2015,04,28,15,46,13.40
2015,04,28,15,47,13.50
2015,04,28,15,48,13.60
2015,04,28,15,49,13.60
2015,04,28,15,50,13.50
2015,04,28,15,51,13.40
2015,04,28,15,52,13.20
2015,04,28,15,53,13.00
2015,04,28,15,54,12.90
2015,04,28,15,55,12.80
2015,04,28,15,56,12.80
2015,04,28,15,57,12.90
2015,04,28,15,58,12.90
2015,04,28,15,59,13.00
2015,04,28,16,00,13.10
2015,04,28,16,01,13.20
2015,04,28,16,02,13.30
2015,04,28,16,03,13.40
2015,04,28,16,04,13.50
2015,04,28,16,05,13.50
2015,04,28,16,06,13.60
2015,04,28,16,07,13.60
2015,04,28,16,08,13.70
2015,04,28,16,09,13.70
2015,04,28,16,10,13.70
2015,04,28,16,11,13.70
2015,04,28,16,12,13.60
2015,04,28,16,13,13.60
2015,04,28,16,14,13.60
2015,04,28,16,15,13.60
2015,04,28,16,16,13.60
2015,04,28,16,17,13.60
2015,04,28,16,18,13.60
2015,04,28,16,19,13.60
2015,04,28,16,20,13.70
2015,04,28,16,21,13.70
2015,04,28,16,22,13.60
2015,04,28,16,23,13.70
2015,04,28,16,24,13.60
2015,04,28,16,25,13.50
2015,04,28,16,26,13.40
2015,04,28,16,27,13.30
2015,04,28,16,28,13.30
2015,04,28,16,29,13.30
2015,04,28,16,30,13.20
2015,04,28,16,31,13.20
2015,04,28,16,32,13.20
2015,04,28,16,33,13.10
2015,04,28,16,34,13.00
2015,04,28,16,35,12.90
2015,04,28,16,36,12.90
2015,04,28,16,37,12.80
2015,04,28,16,38,12.70
2015,04,28,16,39,12.70
2015,04,28,16,40,12.70
2015,04,28,16,41,12.60
2015,04,28,16,42,12.60
2015,04,28,16,43,12.70
2015,04,28,16,44,12.70
2015,04,28,16,45,12.70
2015,04,28,16,46,12.70
2015,04,28,16,47,12.70
2015,04,28,16,48,12.80
2015,04,28,16,49,12.80
2015,04,28,16,50,12.80
2015,04,28,16,51,12.70
2015,04,28,16,52,12.70
2015,04,28,16,53,12.70
2015,04,28,16,54,12.70
2015,04,28,16,55,12.70
2015,04,28,16,56,12.70
2015,04,28,16,57,12.70
2015,04,28,16,58,12.70
2015,04,28,16,59,12.80
2015,04,28,17,00,12.80
2015,04,28,17,01,12.80
2015,04,28,17,02,12.80
2015,04,28,17,03,12.80
2015,04,28,17,04,12.80
2015,04,28,17,05,12.80
2015,04,28,17,06,12.80
2015,04,28,17,07,12.80
2015,04,28,17,08,12.80
2015,04,28,17,09,12.80
2015,04,28,17,10,12.90
2015,04,28,17,11,12.90
2015,04,28,17,12,12.90
2015,04,28,17,13,12.90
2015,04,28,17,14,12.90
2015,04,28,17,15,12.90
2015,04,28,17,16,12.80
2015,04,28,17,17,12.80
2015,04,28,17,18,12.80
2015,04,28,17,19,12.80
2015,04,28,17,20,12.80